Retour au catalogue

STARLINK-32828

ActifCommunicationsVLEO
NORAD 63045·PAYLOAD·🇺🇸 United States

Lancé Feb 18, 2025 depuis Cape Canaveral Space Force Station

Loading…

Prochains Passages (prochaines 24 heures)

TLE

FraisSource: CelesTrak SupGP

Époque: Sep 14, 2026, 20:50 UTC

1 63045C 25034S   26257.86854167 -.00056211  00000+0 -16608-2 0  2575
2 63045  53.1573 109.7824 0001337  87.0302 318.1429 15.34417368    10

Suivez STARLINK-32828 en temps réel avec AllMySat

Download on the App Store